Flag for Netherlands Weather past 2 weeks in Amsterdam, Netherlands

Now
50 °F

Passing clouds.


Feels Like: 48 °F
Forecast: 44 / 60 °F
Wind: 5 mph from South

Location: Amsterdam Schiphol Airport


UV Index: 3 (Moderate)

Visibility: N/A


Pressure: 30.45 "Hg

Humidity: 62%

Dew point: 37 °F

Location of AmsterdamLocation

Historic Weather in Amsterdam

°F

Amsterdam temperature yesterday

Maximum temperature yesterday: 50 °F (at 2:55 PM)
Minimum temperature yesterday: 37 °F (at 5:55 AM)
Average temperature yesterday: 45 °F

Past Weeks' High & Low Weather Summary

 TemperatureHumidityPressure
High70 °F (Apr 3, 4:25 PM)100% (Apr 2, 3:55 AM)30.45 "Hg (Apr 2, 3:55 AM)
Low36 °F (Apr 16, 5:25 AM)43% (Apr 3, 5:25 PM)29.59 "Hg (Apr 3, 6:25 AM)
Average52 °F78%30.00 "Hg
* Reported Apr 1 11:55 AM — Apr 16 11:25 AM, Amsterdam, Weather by CustomWeather, © 2014

Note: Actual official high and low records may vary slightly from our data, if they occured in-between our weather recording intervals... More about our weather records

Advertising

Historic Weather Conditions — Data for Previous 24 hours

 ConditionsComfort  
Time TempWeatherWind HumidityBarometerVisibility
11:25 AM
Apr 16
50 °FPassing clouds.6 mph62%30.45 "HgN/A
10:55 AM48 °FPassing clouds.7 mph58%30.45 "HgN/A
10:25 AM48 °FPassing clouds.7 mph66%30.45 "HgN/A
9:55 AM46 °FPassing clouds.7 mph76%30.45 "HgN/A
9:25 AM46 °FSunny.8 mph76%30.45 "Hg10 mi
8:55 AM45 °FSunny.7 mph76%30.45 "Hg10 mi
8:25 AM43 °FSunny.2 mph81%30.45 "Hg10 mi
7:55 AM39 °FSunny.2 mph93%30.45 "Hg10 mi
7:25 AM37 °FClear.2 mph93%30.42 "Hg10 mi
6:55 AM36 °FClear.1 mph100%30.42 "Hg10 mi
6:25 AM36 °FClear.1 mph100%30.42 "Hg10 mi
5:55 AM37 °FClear.2 mph93%30.42 "Hg10 mi
5:25 AM36 °FClear.1 mph100%30.42 "Hg10 mi
4:55 AM37 °FClear.1 mph93%30.42 "Hg10 mi
4:25 AM37 °FClear.2 mph87%30.42 "Hg10 mi
3:55 AM39 °FClear.2 mph81%30.42 "Hg10 mi
3:25 AM41 °FClear.5 mph76%30.42 "Hg10 mi
2:55 AM39 °FClear.5 mph81%30.42 "Hg10 mi
12:55 AM45 °FPassing clouds.7 mph71%30.42 "HgN/A
12:25 AM41 °FPassing clouds.3 mph81%30.42 "HgN/A
11:55 PM
Apr 15
41 °FPassing clouds.5 mph81%30.42 "HgN/A
10:55 PM43 °FPassing clouds.8 mph76%30.42 "HgN/A
10:25 PM43 °FPassing clouds.8 mph71%30.39 "HgN/A
9:55 PM43 °FPassing clouds.9 mph71%30.39 "HgN/A
9:25 PM45 °FPassing clouds.8 mph66%30.39 "HgN/A
8:55 PM45 °FPassing clouds.9 mph66%30.39 "HgN/A
8:25 PM46 °FPassing clouds.10 mph62%30.39 "HgN/A
7:55 PM46 °FScattered clouds.12 mph62%30.39 "HgN/A
7:25 PM46 °FPartly sunny.12 mph66%30.39 "HgN/A
6:55 PM48 °FPartly sunny.14 mph66%30.36 "HgN/A
6:25 PM48 °FPartly sunny.15 mph58%30.36 "HgN/A
5:55 PM48 °FPartly sunny.15 mph58%30.39 "HgN/A
5:25 PM50 °FPartly sunny.10 mph58%30.39 "HgN/A
4:55 PM50 °FScattered clouds.12 mph54%30.39 "HgN/A
4:25 PM50 °FPartly sunny.14 mph54%30.39 "HgN/A
3:55 PM50 °FPartly sunny.15 mph58%30.39 "HgN/A
3:25 PM50 °FPartly sunny.12 mph58%30.39 "HgN/A
2:55 PM50 °FBroken clouds.14 mph54%30.39 "HgN/A
2:25 PM48 °FBroken clouds.14 mph62%30.39 "HgN/A
1:55 PM48 °FPartly sunny.13 mph66%30.39 "HgN/A
1:25 PM48 °FPartly sunny.15 mph66%30.39 "HgN/A
12:55 PM48 °FBroken clouds.10 mph62%30.36 "HgN/A
12:25 PM48 °FPartly sunny.16 mph62%30.36 "HgN/A
Weather by CustomWeather, © 2014

See weather overview